Torna al catalogo

CZ-6A DEB

AttivoPO
NORAD 56240·DEBRIS·🇨🇳 China

Lanciato Nov 11, 2022 da Taiyuan Satellite Launch Center

Loading…

Prossimi Passaggi (prossime 24 ore)

TLE

AggiornatoSource: Space-Track

Epoca: Sep 14, 2026, 14:03 UTC

1 56240U 22151ABG 26257.58550911  .00012593  00000-0  13668-2 0  9990
2 56240  98.8165  17.6436 0061064 326.2118  33.5209 14.86936291192703

Traccia CZ-6A DEB in tempo reale con AllMySat

Download on the App Store